sat.trackr.live / text

‹ back to catalog

STARLINK-30780

NORAD 58140 · 2023-162Y

PAYLOAD ACTIVE UNKNOWN

§ Identity

Operator
Country
US
Launch date
2023-10-22
Launch site
AFETR
Launch vehicle
Mass (kg)
RCS (m²)

Purposes: comms

External: N2YO · Heavens-Above · Gunter

§ Orbital elements

Epoch: 2026-05-25T03:40:07.300128Z

Period
94.27 min
Inclination
43.0068°
Eccentricity
0.0000802
Mean motion
15.27583982 rev/d
Perigee alt
482.5 km
Apogee alt
483.6 km
Semi-major
6,861.2 km
B*
-1.3289e-5
RAAN
60.4438°
Arg perigee
277.9495°
Mean anomaly
82.1265°
Rev number
14,400

§ Raw data

STARLINK-307801 58140U 23162Y   26145.15286227 -.00000628  00000+0 -13289-4 0  99972 58140  43.0068  60.4438 0000802 277.9495  82.1265 15.27583982144002

JSON: /api/v1/satellites/58140 · /tle

For live sub-satellite position, see the globe view (requires WebGL).

§ Visibility from observer

Set your observer location to see the next 7 days of passes ≥ 10°. The values pass through the URL so the page stays shareable.

No JS? Fill the form by hand. The geolocation button needs JavaScript.